Location: Unspecified
(0.0000°N, 0.0000°E)
Time: 09:41:32
(UTC+00:00)

Tiros 1 despin weight - All Passes

Search period start: 18 September 2014 00:00
Search period end: 28 September 2014 00:00
Orbit: 601 x 652 km, 48.2° (Epoch: 17 September)

Date Brightness Start Highest point End Pass type
(mag) Time Alt. Az. Time Alt. Az. Time Alt. Az.
18 Sep - 06:37:16 10° NW 06:41:59 90° SSW 06:46:44 10° SE daylight
18 Sep - 17:08:42 10° SSE 17:10:05 11° SE 17:11:29 10° ESE daylight
18 Sep - 18:47:24 10° SW 18:51:43 50° NW 18:56:00 10° NNE visible
19 Sep - 05:16:12 10° N 05:19:42 21° NE 05:23:13 10° E visible
19 Sep - 06:57:08 10° WNW 07:01:19 31° SW 07:05:30 10° SSE daylight
19 Sep - 17:25:30 10° SSW 17:29:29 32° SE 17:33:26 10° ENE daylight
19 Sep - 19:08:06 10° W 19:11:03 17° NW 19:13:59 10° N visible
20 Sep - 05:34:25 10° NNW 05:39:02 58° NE 05:43:41 10° SE daylight
20 Sep - 07:19:09 10° WSW 07:20:43 11° SW 07:22:16 10° SSW daylight
20 Sep - 17:44:20 10° SW 17:48:48 82° NW 17:53:13 10° NE daylight
21 Sep - 04:14:23 10° NNE 04:16:43 14° NE 04:19:03 10° E visible
21 Sep - 05:53:48 10° NW 05:58:20 48° SW 06:02:54 10° SSE daylight
21 Sep - 16:23:09 10° S 16:26:32 21° SE 16:29:53 10° E daylight
21 Sep - 18:04:21 10° WSW 18:08:06 26° NW 18:11:49 10° N daylight
22 Sep - 04:31:45 10° NNW 04:36:04 37° NE 04:40:25 10° ESE visible
22 Sep - 06:14:33 10° W 06:17:41 18° SW 06:20:51 10° S daylight
22 Sep - 16:41:26 10° SSW 16:45:52 62° SE 16:50:14 10° NE daylight
23 Sep - 04:50:40 10° NW 04:55:21 76° SW 05:00:05 10° SE visible
23 Sep - 15:21:15 10° SSE 15:23:33 14° SE 15:25:49 10° E daylight
23 Sep - 17:00:56 10° WSW 17:05:09 41° NW 17:09:19 10° NNE daylight
24 Sep - 03:29:18 10° N 03:33:04 24° NE 03:36:52 10° ESE visible
24 Sep - 05:10:44 10° WNW 05:14:40 26° SW 05:18:38 10° S visible
24 Sep - 15:38:43 10° SSW 15:42:54 38° SE 15:47:02 10° ENE daylight
24 Sep - 17:21:59 10° W 17:24:28 15° NW 17:26:56 10° NNW daylight
25 Sep - 03:47:43 10° NNW 03:52:21 69° NE 03:57:04 10° SE visible
25 Sep - 15:57:43 10° SW 16:02:11 68° NW 16:06:35 10° NNE daylight
26 Sep - 02:27:12 10° NNE 02:30:02 16° NE 02:32:54 10° E visible
26 Sep - 04:07:16 10° WNW 04:11:38 40° SW 04:16:04 10° SSE visible
26 Sep - 14:36:11 10° S 14:39:54 25° SE 14:43:34 10° ENE daylight
26 Sep - 16:17:57 10° WSW 16:21:28 22° NW 16:24:56 10° N daylight
27 Sep - 02:44:56 10° NNW 02:49:21 43° NE 02:53:49 10° ESE visible
27 Sep - 04:28:21 10° W 04:31:00 15° SW 04:33:39 10° SSW visible
27 Sep - 14:54:41 10° SW 14:59:12 76° SE 15:03:38 10° NE daylight
